Barrow, AK

8:50 PM AKDT on June 19, 2018 (GMT -0800)
Wiley Post-Will Rogers Memorial

Weather History for PABR - January, 2017

Change the Weather History Date:

Tuesday, January 31, 2017

  Actual Average Record
Temperature  
Mean Temperature 20 °F -14 °F  
Max Temperature 26 °F -8 °F 29 °F (1957)
Min Temperature 14 °F -20 °F -50 °F (1993)
Degree Days  
Heating Degree Days 45 79  
Month to date heating degree days 2016 2429  
Since 1 July heating degree days 8975 10639  
Cooling Degree Days 0 0  
Month to date cooling degree days 0 0  
Year to date cooling degree days 0 0  
Moisture  
Dew Point 15 °F    
Average Humidity 79    
Maximum Humidity 85    
Minimum Humidity 71    
Precipitation  
Precipitation T in 0.00 in 0.25 in (1962)
Month to date precipitation 0.47 0.13  
Year to date precipitation 0.47 0.13  
Snow  
Snow T in 0.10 in 2.50 in (1962)
Month to date snowfall 4.7 2.6  
Since 1 July snowfall 22.0 26.4  
Snow Depth 6.00 in    
Sea Level Pressure  
Sea Level Pressure 29.91 in    
Wind  
Wind Speed 22 mph (SW)    
Max Wind Speed 38 mph    
Max Gust Speed 46 mph    
Visibility 5 miles    
Events Snow    
T = Trace of Precipitation, MM = Missing Value Source: NWS Daily Summary

Daily Weather History Graph

Daily Weather History Graph

Search for Another Location

Airport or City:

Astronomy

Jan. 31, 2017 Rise Set
Actual Time 11:39 AM AKST 3:43 PM AKST
Civil Twilight 9:59 AM AKST 5:22 PM AKST
Nautical Twilight 8:34 AM AKST 6:47 PM AKST
Astronomical Twilight 7:18 AM AKST 8:04 PM AKST
Moon 11:12 AM AKST (1/31) 11:01 PM AKST (1/31)
Length of Visible Light 7h 22m
Length of Day
4h 03m
Waxing Crescent, 16% of the Moon is Illuminated
Jan 31
Waxing Crescent
Feb 3
First Quarter
Feb 10
Full
Feb 18
Last Quarter
Feb 26
New

Hourly Weather History & Observations

Time (AKST) Temp. Windchill Dew Point Humidity Pressure Visibility Wind Dir Wind Speed Gust Speed Precip Events Conditions
12:53 AM 23.0 °F 10.1 °F 16.0 °F 74% 29.74 in 10.0 mi SSE 15.0 mph - N/A   Scattered Clouds
1:53 AM 21.9 °F 8.2 °F 16.0 °F 78% 29.73 in 10.0 mi SE 16.1 mph - N/A   Overcast
2:53 AM 24.1 °F 9.8 °F 17.1 °F 75% 29.73 in 10.0 mi SSE 19.6 mph - N/A   Overcast
3:53 AM 26.1 °F 11.6 °F 18.0 °F 71% 29.72 in 10.0 mi SSE 21.9 mph - N/A   Mostly Cloudy
4:53 AM 26.1 °F 13.1 °F 19.0 °F 75% 29.72 in 10.0 mi SSE 17.3 mph - N/A   Overcast
5:53 AM 25.0 °F 11.7 °F 18.0 °F 75% 29.72 in 10.0 mi SSE 17.3 mph - N/A   Overcast
6:53 AM 24.1 °F 10.1 °F 18.0 °F 77% 29.72 in 10.0 mi South 18.4 mph - N/A   Clear
7:53 AM 23.0 °F 9.2 °F 18.0 °F 81% 29.73 in 10.0 mi South 17.3 mph - N/A   Clear
8:53 AM 19.0 °F 5.0 °F 15.1 °F 85% 29.75 in 10.0 mi South 15.0 mph - N/A   Clear
9:53 AM 21.9 °F 7.8 °F 17.1 °F 82% 29.76 in 10.0 mi South 17.3 mph - N/A   Overcast
10:53 AM 23.0 °F 11.1 °F 18.0 °F 81% 29.79 in 5.0 mi South 12.7 mph - 0.00 in Snow Light Snow
11:53 AM 24.1 °F 14.4 °F 19.0 °F 81% 29.81 in 10.0 mi SSW 9.2 mph - 0.00 in   Overcast
12:53 PM 24.1 °F 12.5 °F 19.0 °F 81% 29.83 in 10.0 mi SSW 12.7 mph - N/A   Overcast
1:53 PM 19.9 °F 6.7 °F 15.1 °F 81% 29.86 in 10.0 mi SSW 13.8 mph - N/A   Mostly Cloudy
3:04 PM 26.1 °F 12.7 °F 19.9 °F 78% 29.87 in 0.8 mi SW 18.4 mph - 0.00 in Snow Light Snow
3:11 PM 26.1 °F 11.3 °F 21.0 °F 81% 29.87 in 1.0 mi SW 23.0 mph - 0.00 in Snow Light Snow
3:24 PM 26.1 °F 11.3 °F 19.9 °F 78% 29.87 in 2.0 mi SW 23.0 mph - 0.00 in Snow Light Snow
3:32 PM 26.1 °F 11.6 °F 19.9 °F 78% 29.88 in 3.0 mi SW 21.9 mph - 0.00 in Snow Light Snow
3:51 PM 24.8 °F 7.6 °F 19.4 °F 80% 29.87 in 0.8 mi SW 31.1 mph 41.4 mph 0.00 in Snow Light Snow
3:53 PM 25.0 °F 8.9 °F 19.0 °F 78% 29.88 in 0.8 mi SW 26.5 mph 41.4 mph 0.00 in Snow Light Snow
4:02 PM 25.0 °F 8.9 °F 18.0 °F 75% 29.88 in 2.0 mi SW 26.5 mph 38.0 mph 0.00 in Snow Light Snow
4:10 PM 24.1 °F 7.1 °F 18.0 °F 77% 29.88 in 3.0 mi SW 28.8 mph 35.7 mph 0.00 in Snow Blowing Snow
4:14 PM 24.1 °F 6.9 °F 18.0 °F 77% 29.88 in 1.0 mi SW 29.9 mph 40.3 mph 0.00 in Snow Blowing Snow
4:24 PM 23.0 °F 4.1 °F 18.0 °F 81% 29.88 in 0.5 mi SW 35.7 mph 43.7 mph 0.00 in Snow Snow
4:43 PM 21.9 °F 3.4 °F 17.1 °F 82% 29.89 in 1.0 mi SW 32.2 mph 42.6 mph 0.00 in Snow Blowing Snow
4:53 PM 21.0 °F 1.7 °F 17.1 °F 85% 29.91 in 0.8 mi SW 34.5 mph 41.4 mph 0.00 in Snow Blowing Snow
5:12 PM 19.9 °F 0.4 °F 16.0 °F 85% 29.92 in 1.0 mi SW 33.4 mph 42.6 mph N/A Snow Blowing Snow
5:34 PM 19.9 °F 1.3 °F 15.1 °F 81% 29.93 in 2.0 mi SW 29.9 mph 39.1 mph N/A Snow Blowing Snow
5:41 PM 19.9 °F 1.3 °F 14.0 °F 78% 29.94 in 1.5 mi WSW 29.9 mph 39.1 mph N/A Snow Blowing Snow
5:53 PM 19.0 °F 0.0 °F 14.0 °F 81% 29.95 in 1.5 mi WSW 29.9 mph 41.4 mph N/A Snow Blowing Snow
6:08 PM 19.0 °F -0.5 °F 12.9 °F 77% 29.96 in 3.0 mi SW 32.2 mph - N/A Snow Blowing Snow
6:53 PM 17.1 °F -4.6 °F 12.0 °F 81% 30.00 in 3.0 mi WSW 38.0 mph 46.0 mph N/A Snow Blowing Snow
7:45 PM 16.0 °F -4.7 °F 10.0 °F 77% 30.04 in 3.0 mi WSW 32.2 mph 41.4 mph N/A Snow Blowing Snow
7:53 PM 16.0 °F -2.5 °F 10.0 °F 77% 30.05 in 3.0 mi WSW 24.2 mph 39.1 mph N/A Snow Blowing Snow
8:22 PM 16.0 °F -3.2 °F 10.0 °F 77% 30.07 in 4.0 mi WSW 26.5 mph 35.7 mph N/A Snow Blowing Snow
8:35 PM 16.0 °F -4.1 °F 10.0 °F 77% 30.08 in 1.8 mi WSW 29.9 mph 39.1 mph N/A Snow Blowing Snow
8:42 PM 16.0 °F -3.5 °F 10.0 °F 77% 30.09 in 3.0 mi WSW 27.6 mph 36.8 mph N/A Snow Blowing Snow
8:53 PM 15.1 °F -5.9 °F 9.0 °F 77% 30.11 in 3.0 mi WSW 32.2 mph 41.4 mph N/A Snow Blowing Snow
8:59 PM 15.1 °F -5.0 °F 9.0 °F 77% 30.10 in 2.0 mi WSW 28.8 mph 40.3 mph N/A Snow Blowing Snow
9:10 PM 15.1 °F -5.7 °F 9.0 °F 77% 30.11 in 3.0 mi WSW 31.1 mph 41.4 mph N/A Snow Blowing Snow
9:53 PM 15.1 °F -5.3 °F 9.0 °F 77% 30.15 in 5.0 mi WSW 29.9 mph 35.7 mph N/A Snow Blowing Snow
10:20 PM 14.0 °F -4.3 °F 9.0 °F 80% 30.17 in 9.0 mi SW 21.9 mph 28.8 mph N/A   Mostly Cloudy
10:53 PM 14.0 °F -3.9 °F 8.1 °F 77% 30.19 in 9.0 mi SW 20.7 mph - N/A   Mostly Cloudy
11:53 PM 16.0 °F -1.7 °F 10.0 °F 77% 30.23 in 5.0 mi WSW 21.9 mph 29.9 mph 0.00 in   Overcast